Location: PSU-Greenbush Astrophysical Observatory
(37.5140°N, 94.9880°W)
Time: 08:30:22
(UTC-06:00)

deb Explorer IX - Pass Details

Date: 02 February 2020
Orbit: 549 x 1099 km, 38.8° (Epoch: 28 February)

Event Time Altitude Azimuth Distance (km) Brightness Sun altitude
Rises 20:41:11 0° 271° (W) 3,434 ? -35.2°
Reaches altitude 10° 20:43:36 10° 272° (W) 2,576 ? -35.7°
Enters shadow 20:47:48 46° 281° (W) 1,269 ? -36.5°
Maximum altitude 20:49:53 80° 359° (N) 1,012 - -36.9°
Drops below altitude 10° 20:57:01 10° 87° (E) 2,895 - -38.3°
Sets 20:59:52 0° 89° (E) 3,883 - -38.9°
